Location: Madrid
(40.4000°N, 3.6830°W)
Time: 15:32:28
(UTC+02:00)

ISS - Pass Details

Date: 11 September 2019
Orbit: 411 x 421 km, 51.6° (Epoch: 18 September)

Event Time Altitude Azimuth Distance (km) Brightness Sun altitude
Exits shadow 05:30:03 14° 2° (N) 1,277 -1.0 -26.0°
Maximum altitude 05:30:33 14° 12° (NNE) 1,261 -0.9 -25.9°
Drops below altitude 10° 05:32:26 10° 46° (NE) 1,491 0.0 -25.6°
Sets 05:35:18 0° 73° (ENE) 2,356 1.3 -25.2°
